This is the latest recevied weather packets stored in our database for station/object KC1DMA. If no packets are shown the sender has not sent any weather packets the latest 10 day(s).
| Time | Temp. | Humidity | Pressure | Rain* | Wind** | Luminosity | Snow |
|---|---|---|---|---|---|---|---|
| 1777291379 | 8.33° C | 77% | 1025.6 hPa | - | - | 237 W/m² | - |
| 1777291076 | 8.33° C | 76% | 1025.7 hPa | - | - | 238 W/m² | - |
| 1777290773 | 8.33° C | 77% | 1025.4 hPa | - | - | 228 W/m² | - |
| 1777290469 | 8.33° C | 78% | 1025.6 hPa | - | - | 210 W/m² | - |
| 1777290165 | 8.33° C | 78% | 1025.5 hPa | - | - | 161 W/m² | - |
| 1777289862 | 8.33° C | 77% | 1025.6 hPa | - | - | 133 W/m² | - |
| 1777289558 | 8.33° C | 79% | 1025.4 hPa | - | - | 118 W/m² | - |
| 1777289253 | 7.78° C | 80% | 1025.4 hPa | - | - | 107 W/m² | - |
| 1777288951 | 7.22° C | 83% | 1025.3 hPa | - | - | 102 W/m² | - |
| 1777288647 | 6.67° C | 85% | 1025.3 hPa | - | - | 96 W/m² | - |
| 1777288344 | 6.67° C | 91% | 1025.2 hPa | - | - | 87 W/m² | - |
| 1777288040 | 5.56° C | 93% | 1025.1 hPa | - | - | 66 W/m² | - |
| 1777287738 | 5° C | 94% | 1025.1 hPa | - | - | 56 W/m² | - |
| 1777287434 | 5° C | 95% | 1025.1 hPa | - | - | 44 W/m² | - |
| 1777287129 | 4.44° C | 95% | 1025.2 hPa | - | - | 35 W/m² | - |
| 1777286826 | 4.44° C | 95% | 1025.2 hPa | - | - | 31 W/m² | - |
| 1777286524 | 3.89° C | 95% | 1025 hPa | - | - | 28 W/m² | - |
| 1777286221 | 3.89° C | 95% | 1024.9 hPa | - | - | 26 W/m² | - |
| 1777285918 | 3.89° C | 94% | 1024.9 hPa | - | - | 24 W/m² | - |
| 1777285615 | 3.89° C | 95% | 1025 hPa | - | - | 21 W/m² | - |
| 1777285313 | 3.89° C | 95% | 1025 hPa | - | - | 19 W/m² | - |
| 1777285010 | 3.89° C | 94% | 1025.1 hPa | - | - | 15 W/m² | - |
| 1777284707 | 3.89° C | 94% | 1025.1 hPa | - | - | 12 W/m² | - |
| 1777284404 | 3.89° C | 94% | 1025 hPa | - | - | 9 W/m² | - |
| 1777284100 | 3.89° C | 94% | 1025 hPa | - | - | 7 W/m² | - |
* Rain since midnight (hover to see other rain measurements)
** Current wind speed in m/s (hover to see current wind gust speed)